EA4TN Weather Reports


time (UTC)temp
C
wind
direction
speed
KPH
gust
KPH
rain 1hr
cm
rain 24hr
cm
rain mn
cm
humidity
%
barometer
mb
20260508205016 14 51 4.8 8.0 0.00 0.28 0.28 73 1011.0
20260508204056 15 50 3.2 6.4 0.00 0.28 0.28 72 1010.8
20260508203016 15 49 3.2 6.4 0.00 0.28 0.28 71 1010.7
20260508202016 15 49 4.8 9.7 0.00 0.28 0.28 71 1010.6
20260508201016 15 52 6.4 9.7 0.00 0.28 0.28 71 1010.5
20260508200017 15 47 6.4 8.0 0.00 0.28 0.28 71 1010.5
20260508195056 15 45 4.8 8.0 0.00 0.28 0.28 71 1010.4
20260508194016 15 44 4.8 8.0 0.00 0.28 0.28 70 1010.2
20260508193016 15 44 3.2 6.4 0.00 0.28 0.28 69 1010.1
20260508192016 16 59 1.6 6.4 0.00 0.28 0.28 68 1010.1
20260508191016 16 49 4.8 8.0 0.00 0.28 0.28 66 1010.0
20260508190016 16 37 4.8 8.0 0.00 0.28 0.28 64 1010.1
20260508185016 17 58 3.2 6.4 0.00 0.28 0.28 63 1010.0
20260508184036 17 52 4.8 9.7 0.00 0.28 0.28 62 1009.9
20260508183016 17 66 3.2 9.7 0.00 0.28 0.28 62 1010.0
20260508182017 17 42 6.4 9.7 0.00 0.28 0.28 60 1009.9
20260508181016 17 47 4.8 9.7 0.00 0.28 0.28 59 1009.9
20260508180016 18 48 6.4 11.3 0.00 0.28 0.28 59 1009.9
20260508175017 18 47 4.8 11.3 0.00 0.28 0.28 57 1009.9
20260508174016 18 21 3.2 6.4 0.00 0.28 0.28 57 1010.0
20260508173016 18 46 4.8 9.7 0.00 0.28 0.28 57 1010.0
20260508172016 18 45 0.0 4.8 0.00 0.28 0.28 57 1010.0
20260508171017 18 46 0.0 6.4 0.00 0.28 0.28 56 1010.0
20260508170016 18 46 3.2 6.4 0.00 0.28 0.28 56 1010.1
20260508165017 19 106 1.6 8.0 0.00 0.28 0.28 53 1010.2
20260508164016 19 118 3.2 8.0 0.00 0.28 0.28 53 1010.3
20260508163016 18 119 1.6 6.4 0.00 0.28 0.28 55 1010.3
20260508162016 18 105 1.6 8.0 0.00 0.28 0.28 54 1010.3
20260508161017 18 263 1.6 11.3 0.00 0.28 0.28 56 1010.3
20260508160016 18 302 4.8 12.9 0.00 0.30 0.28 58 1010.2
20260508155016 18 297 6.4 11.3 0.00 0.33 0.28 58 1010.2
20260508154016 17 273 6.4 12.9 0.00 0.33 0.28 57 1010.2
20260508153036 18 272 6.4 14.5 0.00 0.36 0.28 56 1010.3
20260508152017 18 256 6.4 12.9 0.00 0.41 0.28 55 1010.4
20260508151016 18 253 8.0 16.1 0.00 0.41 0.28 57 1010.5
20260508150016 17 257 4.8 20.9 0.00 0.41 0.28 62 1010.7
20260508145016 17 260 4.8 9.7 0.00 0.41 0.28 69 1010.7
20260508144016 16 264 6.4 12.9 0.00 0.41 0.28 73 1010.8
20260508143016 16 245 6.4 16.1 0.00 0.41 0.28 80 1010.8
20260508142037 15 267 6.4 11.3 0.00 0.41 0.28 91 1010.7
20260508141016 14 237 4.8 14.5 0.00 0.41 0.28 91 1010.7
20260508140017 14 259 3.2 11.3 0.00 0.41 0.28 93 1010.9
20260508135017 14 267 3.2 8.0 0.00 0.41 0.28 91 1010.9
20260508134036 14 141 3.2 9.7 0.00 0.41 0.28 92 1011.0
20260508133017 14 97 1.6 8.0 0.00 0.43 0.28 93 1011.0
20260508132017 13 271 1.6 4.8 0.00 0.56 0.28 92 1010.9
20260508131017 13 252 0.0 4.8 0.20 0.61 0.28 94 1011.1
20260508130016 12 311 0.0 4.8 0.23 0.61 0.28 94 1011.1
20260508125016 12 304 3.2 9.7 0.23 0.74 0.28 93 1011.2
20260508124016 12 7 1.6 8.0 0.23 1.45 0.28 95 1011.3
20260508123017 12 358 4.8 9.7 0.23 1.45 0.28 93 1011.2
20260508122017 12 345 3.2 6.4 0.23 1.45 0.28 91 1012.1
20260508121017 13 67 1.6 6.4 0.05 1.24 0.08 84 1011.9
20260508120017 13 335 1.6 8.0 0.03 1.22 0.05 85 1011.8
20260508115037 13 355 3.2 8.0 0.00 1.19 0.05 88 1012.0
20260508114017 13 45 4.8 9.7 0.00 1.19 0.05 88 1011.9
20260508113016 13 29 4.8 9.7 0.03 1.19 0.05 87 1012.1
20260508112017 13 32 3.2 8.0 0.05 1.19 0.05 88 1012.0
20260508111017 12 60 4.8 6.4 0.05 1.19 0.05 88 1012.0
20260508110016 12 349 3.2 6.4 0.05 1.19 0.05 88 1012.2
20260508105057 12 276 3.2 6.4 0.05 1.19 0.05 87 1012.3
20260508104017 12 349 1.6 8.0 0.05 1.19 0.05 84 1012.2
20260508103016 13 273 1.6 4.8 0.03 1.17 0.03 80 1012.4
20260508102016 13 295 1.6 4.8 0.00 1.17 0.00 78 1012.4
20260508101017 13 356 1.6 6.4 0.00 1.17 0.00 76 1012.3
20260508100017 13 50 1.6 6.4 0.00 1.17 0.00 75 1012.2
20260508095017 13 38 3.2 9.7 0.00 1.17 0.00 75 1012.1
20260508094016 13 58 1.6 8.0 0.00 1.17 0.00 75 1012.3
20260508093016 13 54 3.2 8.0 0.00 1.17 0.00 75 1012.2
20260508092017 13 353 1.6 4.8 0.00 1.17 0.00 77 1012.2
20260508091017 12 13 1.6 6.4 0.00 1.17 0.00 78 1012.3
20260508090017 12 18 1.6 6.4 0.00 1.17 0.00 80 1012.2
20260508085017 12 125 3.2 6.4 0.00 1.17 0.00 81 1012.1
20260508084016 12 137 0.0 3.2 0.00 1.17 0.00 81 1012.3
20260508083037 11 131 1.6 6.4 0.00 1.17 0.00 83 1012.2
20260508082017 11 44 4.8 8.0 0.00 1.17 0.00 84 1012.0
20260508081017 11 58 4.8 11.3 0.00 1.17 0.00 84 1011.8
20260508080017 10 53 4.8 8.0 0.00 1.17 0.00 85 1012.0
20260508075017 10 68 3.2 6.4 0.00 1.17 0.00 85 1012.1
20260508074017 10 43 1.6 6.4 0.00 1.17 0.00 86 1012.1
20260508073017 10 48 3.2 6.4 0.00 1.17 0.00 87 1012.1
20260508072017 9 48 3.2 6.4 0.00 1.17 0.00 88 1012.0
20260508071017 9 70 1.6 6.4 0.00 1.17 0.00 89 1012.0
20260508070017 8 45 4.8 9.7 0.00 1.17 0.00 90 1011.8
20260508065017 8 46 4.8 9.7 0.00 1.17 0.00 90 1011.6
20260508064017 8 47 6.4 12.9 0.00 1.17 0.00 90 1011.9
20260508063017 8 50 6.4 14.5 0.00 1.17 0.00 90 1011.8
20260508062017 8 44 6.4 12.9 0.00 1.17 0.00 90 1011.8
20260508061016 8 53 6.4 12.9 0.00 1.17 0.00 90 1011.6
20260508060017 8 50 6.4 11.3 0.00 1.17 0.00 90 1011.5
20260508055016 8 52 4.8 12.9 0.00 1.17 0.00 89 1011.6
20260508054017 8 50 6.4 11.3 0.00 1.17 0.00 89 1011.6
20260508053017 8 49 4.8 9.7 0.00 1.17 0.00 89 1011.7
20260508052017 8 50 4.8 9.7 0.00 1.17 0.00 89 1011.6
20260508051017 8 94 1.6 9.7 0.00 1.17 0.00 89 1011.3
20260508050017 8 56 3.2 8.0 0.00 1.17 0.00 89 1011.2
20260508045017 8 80 3.2 8.0 0.00 1.17 0.00 89 1011.1
20260508044017 8 67 3.2 8.0 0.00 1.17 0.00 89 1010.8
20260508043020 8 60 3.2 8.0 0.00 1.17 0.00 89 1010.8
20260508042017 8 80 4.8 6.4 0.00 1.17 0.00 89 1010.7
20260508041017 8 73 3.2 6.4 0.00 1.17 0.00 88 1010.6
20260508040017 8 69 4.8 9.7 0.00 1.17 0.00 88 1010.5
20260508035017 8 77 3.2 6.4 0.00 1.17 0.00 88 1010.5
20260508034017 8 63 3.2 8.0 0.00 1.17 0.00 88 1010.6
20260508033017 8 46 3.2 8.0 0.00 1.17 0.00 89 1010.6
20260508032017 8 49 4.8 8.0 0.00 1.17 0.00 89 1010.6
20260508031017 8 63 3.2 9.7 0.00 1.17 0.00 89 1010.8
20260508030017 8 54 3.2 9.7 0.00 1.17 0.00 89 1010.6
20260508025017 8 81 3.2 8.0 0.00 1.17 0.00 90 1010.5
20260508024017 8 94 3.2 11.3 0.00 1.17 0.00 90 1010.5
20260508023017 8 60 4.8 11.3 0.00 1.17 0.00 90 1010.5
20260508022017 8 46 8.0 14.5 0.00 1.17 0.00 89 1010.6
20260508021017 8 58 6.4 11.3 0.00 1.17 0.00 89 1010.4
20260508020017 8 57 6.4 14.5 0.00 1.17 0.00 89 1010.6
20260508015017 9 60 6.4 11.3 0.00 1.17 0.00 89 1010.7
20260508014017 9 62 4.8 11.3 0.00 1.17 0.00 89 1010.6
20260508013017 9 50 4.8 11.3 0.00 1.17 0.00 89 1010.8
20260508012015 9 48 8.0 12.9 0.00 1.17 0.00 89 1010.9
20260508011017 9 69 3.2 11.3 0.00 1.17 0.00 89 1011.6
20260508010017 9 50 6.4 12.9 0.00 1.17 0.00 89 1011.7
20260508005017 9 50 8.0 12.9 0.00 1.17 0.00 89 1011.9
20260508004037 10 47 4.8 9.7 0.00 1.17 0.00 88 1012.1
20260508003037 10 40 3.2 8.0 0.00 1.17 0.00 87 1012.2
20260508002037 10 77 3.2 6.4 0.00 1.17 0.00 86 1012.3
20260508001018 10 77 3.2 4.8 0.00 1.17 0.00 86 1012.7
20260508000017 10 78 3.2 6.4 0.00 1.17 0.00 86 1012.8
20260507235017 10 79 1.6 6.4 0.00 1.17 1.17 85 1012.7
20260507234017 10 79 1.6 4.8 0.00 1.17 1.17 86 1012.8
20260507233017 10 79 1.6 3.2 0.00 1.17 1.17 87 1012.9
20260507232016 10 79 1.6 4.8 0.00 1.17 1.17 87 1013.1
20260507231017 10 79 3.2 6.4 0.00 1.17 1.17 87 1013.1
20260507230016 10 79 1.6 3.2 0.00 1.17 1.17 87 1013.1
20260507225016 10 81 3.2 6.4 0.00 1.17 1.17 87 1013.2
20260507224016 10 98 1.6 3.2 0.00 1.17 1.17 87 1013.1
20260507223016 10 98 1.6 3.2 0.00 1.17 1.17 87 1013.1
20260507222017 10 98 1.6 4.8 0.00 1.17 1.17 88 1013.1
20260507221016 10 105 0.0 3.2 0.00 1.17 1.17 87 1013.0
20260507220016 10 0.0 0.0 0.00 1.17 1.17 87 1013.1
20260507215016 10 0.0 1.6 0.00 1.17 1.17 87 1013.0
20260507214016 10 0.0 0.0 0.00 1.17 1.17 88 1012.9
20260507213016 10 0.0 0.0 0.00 1.17 1.17 87 1012.7
20260507212017 10 0.0 0.0 0.00 1.17 1.17 86 1012.7
20260507211017 11 0.0 0.0 0.00 1.17 1.17 84 1012.4
20260507210016 11 0.0 0.0 0.00 1.17 1.17 82 1012.3